Tonkawa, OK

7:21 AM CST on February 26, 2017 (GMT -0600)
Blackwell

Weather History for KBKN - January, 2012

Change the Weather History Date:

Monday, January 16, 2012

  Actual Average (KPNC) Record (KPNC)
Temperature  
Mean Temperature 54 °F -  
Max Temperature 69 °F 54 °F 75 °F (1952)
Min Temperature 39 °F 28 °F 2 °F (1953)
Degree Days  
Heating Degree Days 11    
Growing Degree Days 4 (Base 50)    
Moisture  
Dew Point 42 °F    
Average Humidity 64    
Maximum Humidity 87    
Minimum Humidity 40    
Precipitation  
Precipitation 0.00 in - - ()
Sea Level Pressure  
Sea Level Pressure 29.71 in    
Wind  
Wind Speed 21 mph (SSW)    
Max Wind Speed 32 mph    
Max Gust Speed 47 mph    
Visibility 10 miles    
Events      
Averages and records for this station are not official NWS values.
T = Trace of Precipitation, MM = Missing Value Source: NWS Daily Summary

Daily Weather History Graph

Daily Weather History Graph

Search for Another Location

Airport or City:

Trip Planner

Search our weather history database for the weather conditions in past years. The results will help you decide how hot, cold, wet, or windy it might be!

Date:

Astronomy

Jan. 16, 2012 Rise Set
Actual Time 7:40 AM CST 5:37 PM CST
Civil Twilight 7:12 AM CST 6:05 PM CST
Nautical Twilight 6:40 AM CST 6:37 PM CST
Astronomical Twilight 6:09 AM CST 7:08 PM CST
Moon 12:54 AM CST (1/16) 11:49 AM CST (1/16)
Length of Visible Light 10h 52m
Length of Day
9h 56m
Last Quarter, 46% of the Moon is Illuminated
Jan 16
Last Quarter
Jan 23
New
Jan 30
First Quarter
Feb 7
Full
Feb 14
Last Quarter

Hourly Weather History & Observations

Time (CST) Temp. Windchill Dew Point Humidity Pressure Visibility Wind Dir Wind Speed Gust Speed Precip Events Conditions
12:15 AM 55.4 °F - 46.4 °F 72% 29.77 in 10.0 mi South 25.3 mph 35.7 mph N/A   Clear
1:55 AM 57.2 °F - 48.2 °F 72% 29.74 in 10.0 mi SSW 32.2 mph 42.6 mph N/A   Clear
2:35 AM 55.4 °F - 48.2 °F 77% 29.74 in 10.0 mi SSW 27.6 mph 40.3 mph N/A   Clear
2:55 AM 55.4 °F - 48.2 °F 77% 29.74 in 10.0 mi SSW 25.3 mph 35.7 mph N/A   Clear
3:15 AM 55.4 °F - 46.4 °F 72% 29.74 in 10.0 mi SSW 25.3 mph 34.5 mph N/A   Clear
3:35 AM 55.4 °F - 46.4 °F 72% 29.73 in 10.0 mi SSW 28.8 mph 39.1 mph N/A   Clear
3:55 AM 55.4 °F - 46.4 °F 72% 29.73 in 10.0 mi SSW 27.6 mph 36.8 mph N/A   Clear
4:15 AM 53.6 °F - 46.4 °F 77% 29.72 in 10.0 mi SSW 26.5 mph 35.7 mph N/A   Clear
4:35 AM 53.6 °F - 46.4 °F 77% 29.72 in 10.0 mi SSW 27.6 mph 47.2 mph N/A   Clear
4:55 AM 53.6 °F - 46.4 °F 77% 29.74 in 10.0 mi SSW 25.3 mph 34.5 mph N/A   Clear
5:15 AM 53.6 °F - 46.4 °F 77% 29.74 in 10.0 mi SSW 20.7 mph 34.5 mph N/A   Clear
5:35 AM 51.8 °F - 46.4 °F 82% 29.73 in 10.0 mi SSW 27.6 mph 33.4 mph N/A   Clear
6:15 AM 50.0 °F - 46.4 °F 87% 29.73 in 10.0 mi South 26.5 mph 31.1 mph N/A   Clear
6:35 AM 50.0 °F - 46.4 °F 87% 29.74 in 10.0 mi SSW 19.6 mph 34.5 mph N/A   Clear
6:55 AM 50.0 °F - 46.4 °F 87% 29.75 in 10.0 mi SSW 21.9 mph 25.3 mph N/A   Clear
7:15 AM 50.0 °F - 44.6 °F 82% 29.75 in 10.0 mi SSW 18.4 mph 26.5 mph N/A   Clear
7:35 AM 50.0 °F - 44.6 °F 82% 29.75 in 10.0 mi SSW 19.6 mph 28.8 mph N/A   Clear
8:15 AM 50.0 °F - 44.6 °F 82% 29.76 in 10.0 mi SSW 18.4 mph - N/A   Clear
8:35 AM 51.8 °F - 44.6 °F 76% 29.77 in 10.0 mi SSW 18.4 mph 27.6 mph N/A   Clear
9:15 AM 55.4 °F - 42.8 °F 63% 29.78 in 10.0 mi SSW 21.9 mph 31.1 mph N/A   Clear
9:35 AM 55.4 °F - 41.0 °F 58% 29.79 in 10.0 mi SSW 23.0 mph 31.1 mph N/A   Clear
10:15 AM 57.2 °F - 41.0 °F 55% 29.80 in 10.0 mi SSW 18.4 mph 28.8 mph N/A   Clear
10:35 AM 57.2 °F - 41.0 °F 55% 29.80 in 10.0 mi SSW 19.6 mph 26.5 mph N/A   Clear
10:55 AM 59.0 °F - 41.0 °F 51% 29.80 in 10.0 mi SSW 19.6 mph 23.0 mph N/A   Clear
11:15 AM 59.0 °F - 41.0 °F 51% 29.79 in 10.0 mi SSW 19.6 mph 26.5 mph N/A   Clear
11:35 AM 59.0 °F - 41.0 °F 51% 29.78 in 10.0 mi SSW 18.4 mph 25.3 mph N/A   Clear
11:55 AM 60.8 °F - 41.0 °F 48% 29.76 in 10.0 mi SSW 17.3 mph 20.7 mph N/A   Clear
12:35 PM 62.6 °F - 41.0 °F 45% 29.74 in 10.0 mi SW 21.9 mph 25.3 mph N/A   Clear
1:15 PM 66.2 °F - 41.0 °F 40% 29.71 in 10.0 mi SSW 21.9 mph - N/A   Clear
1:35 PM 68.0 °F - 42.8 °F 40% 29.69 in 10.0 mi South 18.4 mph 23.0 mph N/A   Clear
1:55 PM 68.0 °F - 42.8 °F 40% 29.69 in 10.0 mi SSW 23.0 mph 28.8 mph N/A   Clear
2:15 PM 68.0 °F - 44.6 °F 43% 29.67 in 10.0 mi South 25.3 mph 31.1 mph N/A   Clear
2:55 PM 68.0 °F - 42.8 °F 40% 29.66 in 10.0 mi SSW 23.0 mph 31.1 mph N/A   Clear
3:15 PM 69.8 °F - 44.6 °F 40% 29.65 in 10.0 mi South 27.6 mph 33.4 mph N/A   Clear
3:35 PM 68.0 °F - 44.6 °F 43% 29.65 in 10.0 mi South 19.6 mph 31.1 mph N/A   Clear
3:55 PM 66.2 °F - 46.4 °F 49% 29.65 in 10.0 mi South 16.1 mph 24.2 mph N/A   Clear
4:15 PM 64.4 °F - 46.4 °F 52% 29.67 in 10.0 mi South 12.7 mph - N/A   Clear
4:55 PM 64.4 °F - 46.4 °F 52% 29.66 in 10.0 mi SW 6.9 mph - N/A   Clear
5:15 PM 62.6 °F - 46.4 °F 55% 29.65 in 10.0 mi SW 4.6 mph - N/A   Clear
5:35 PM 62.6 °F - 46.4 °F 55% 29.65 in 10.0 mi SSW 8.1 mph - N/A   Clear
6:15 PM 60.8 °F - 50.0 °F 68% 29.66 in 10.0 mi SSW 10.4 mph - N/A   Mostly Cloudy
6:35 PM 59.0 °F - 50.0 °F 72% 29.66 in 10.0 mi SW 12.7 mph - N/A   Overcast
6:55 PM 60.8 °F - 50.0 °F 68% 29.66 in 10.0 mi WSW 8.1 mph - N/A   Overcast
7:15 PM 55.4 °F - 44.6 °F 67% 29.67 in 10.0 mi NNW 15.0 mph 18.4 mph N/A   Mostly Cloudy
7:35 PM 50.0 °F - 35.6 °F 58% 29.67 in 10.0 mi North 16.1 mph - N/A   Overcast
7:55 PM 48.2 °F - 33.8 °F 58% 29.67 in 10.0 mi NNE 6.9 mph - N/A   Mostly Cloudy
8:15 PM 48.2 °F - 33.8 °F 58% 29.66 in 10.0 mi NNE 8.1 mph - N/A   Scattered Clouds
8:35 PM 46.4 °F 45.2 °F 33.8 °F 62% 29.66 in 10.0 mi NE 3.5 mph - N/A   Mostly Cloudy
8:55 PM 46.4 °F 45.2 °F 33.8 °F 62% 29.67 in 10.0 mi NE 3.5 mph - N/A   Mostly Cloudy
9:15 PM 44.6 °F 43.1 °F 35.6 °F 71% 29.66 in 10.0 mi ESE 3.5 mph - N/A   Mostly Cloudy
9:35 PM 44.6 °F 41.4 °F 35.6 °F 71% 29.66 in 10.0 mi North 5.8 mph - N/A   Scattered Clouds
9:55 PM 41.0 °F 34.7 °F 35.6 °F 81% 29.67 in 10.0 mi NNW 10.4 mph - N/A   Partly Cloudy
10:15 PM 41.0 °F 35.8 °F 33.8 °F 76% 29.67 in 10.0 mi North 8.1 mph - N/A   Partly Cloudy
10:35 PM 41.0 °F 35.2 °F 32.0 °F 70% 29.67 in 10.0 mi North 9.2 mph - N/A   Clear
11:15 PM 39.2 °F 29.6 °F 32.0 °F 75% 29.71 in 10.0 mi NNW 19.6 mph - N/A   Clear
11:35 PM 41.0 °F 30.7 °F 32.0 °F 70% 29.73 in 10.0 mi NNW 25.3 mph 29.9 mph N/A   Partly Cloudy
11:55 PM 39.2 °F 27.4 °F 30.2 °F 70% 29.77 in 10.0 mi NNW 29.9 mph 41.4 mph N/A   Partly Cloudy